This demonstration page uses our WeatherBlox Daily Observations layout. Learn more.

Left ArrowRight Arrow

41.86663, -103.66717

Hourly Observations for January 3, 2021

Temp ( °F °C ) Dew Point ( °F °C ) Humidity (%) Winds ( mph kmh ) Pressure ( in mb ) Visibility ( mi km ) Precip ( " mm )
12:53 am 00:53 Clear 32 0 19 -7.2 59 59 WNW 13 20 29.90 1013 10 16 0.00 0.00
1:53 am 01:53 Clear 29 -1.7 18 -7.8 63 63 NW 8 13 29.91 1013 10 16 0.00 0.00
2:53 am 02:53 Clear 24 -4.4 16 -8.9 71 71 NW 5 7 29.93 1013 10 16 0.00 0.00
3:53 am 03:53 Clear 25 -3.9 16 -8.9 69 69 NW 9 15 29.93 1014 10 16 0.00 0.00
4:53 am 04:53 Clear 23 -5 15 -9.4 72 72 NW 7 11 29.94 1014 10 16 0.00 0.00
5:53 am 05:53 Clear 22 -5.6 14 -10 71 71 Calm 29.93 1014 10 16 0.00 0.00
6:53 am 06:53 Clear 22 -5.6 14 -10 71 71 Calm 29.94 1014 10 16 0.00 0.00
7:53 am 07:53 Sunny 19 -7.2 13 -10.6 77 77 NW 7 11 29.94 1014 10 16 0.00 0.00
8:53 am 08:53 Sunny 30 -1.1 18 -7.8 61 61 N 5 7 29.91 1013 10 16 0.00 0.00
9:53 am 09:53 Sunny 32 0 21 -6.1 64 64 ESE 6 9 29.90 1013 10 16 0.00 0.00
10:53 am 10:53 Sunny 41 5 21 -6.1 45 45 VRB 3 6 29.83 1010 10 16 0.00 0.00
11:53 am 11:53 Sunny 45 7.2 23 -5 42 42 NW 8 13 29.78 1008 10 16 0.00 0.00
12:53 pm 12:53 Sunny 49 9.4 24 -4.4 38 38 WNW 13 20 29.75 1008 10 16 0.00 0.00
1:53 pm 13:53 Sunny 49 9.4 24 -4.4 38 38 W 15 24 29.76 1008 10 16 0.00 0.00
2:53 pm 14:53 Sunny 47 8.3 23 -5 39 39 WNW 21 33 29.79 1009 10 16 0.00 0.00
3:53 pm 15:53 Sunny 44 6.7 24 -4.4 45 45 WNW 15 24 29.81 1009 10 16 0.00 0.00
4:53 pm 16:53 Mostly Cloudy 44 6.7 25 -3.9 47 47 WNW 23 37 29.83 1010 10 16 0.00 0.00
5:53 pm 17:53 Cloudy 45 7.2 26 -3.3 48 48 W 23 37 29.86 1011 10 16 0.00 0.00
6:53 pm 18:53 Cloudy 44 6.7 26 -3.3 49 49 W 24 39 29.89 1012 10 16 0.00 0.00
7:53 pm 19:53 Cloudy 43 6.1 26 -3.3 51 51 WNW 21 33 29.93 1014 10 16 0.00 0.00
8:53 pm 20:53 Mostly Cloudy 41 5 26 -3.3 55 55 WNW 14 22 29.94 1014 10 16 0.00 0.00
9:53 pm 21:53 Mostly Clear 38 3.3 27 -2.8 65 65 NW 10 17 29.96 1015 10 16 0.00 0.00
10:53 pm 22:53 Mostly Cloudy 40 4.4 26 -3.3 58 58 WNW 10 17 29.95 1014 10 16 0.00 0.00
11:53 pm 23:53 Cloudy 40 4.4 26 -3.3 58 58 WNW 14 22 29.96 1015 10 16 0.00 0.00

Powered by AerisWeather